Temp
5 6 6 6 6 7 6 6 7 4 5 5 5 8 12 14 16 17 16 17 19 18 18 18 18 17 18 18 16 15 17 15 14 15 17 17 15 15 13 8 11 8 8 10
5 5 6 6 6 6 6 5 3 3 4 7 7 8 12 14 16 16 17 17 19 19 18 18 18 17 16 16 16 15 15 13 12 15 14 16 15 15 15 11 8 10 7 10
4 5 6 6 6 6 5 3 4 2 2 3 7 9 11 13 15 16 18 17 18 17 17 18 17 14 16 15 13 14 15 14 13 12 14 14 13 14 15 12 8 10 10 12
4 4 5 7 5 5 5 4 5 4 4 5 6 8 9 12 13 15 16 16 16 16 15 16 15 14 13 13 13 14 12 11 13 13 15 16 15 15 14 14 12 10 12 13
4 4 4 5 4 5 5 3 5 5 6 7 6 8 8 10 13 14 14 15 15 15 14 13 13 12 11 11 12 12 12 8 12 11 13 15 14 15 15 15 15 14 14 13
3 4 4 4 4 5 4 3 5 7 7 7 7 8 9 10 12 13 14 14 13 14 14 13 13 12 11 12 10 9 10 10 11 10 13 13 11 13 14 14 14 13 11 12
3 3 3 3 4 5 5 4 6 6 7 7 8 10 10 11 11 9 12 11 12 13 12 13 12 12 13 12 10 10 10 10 9 9 11 10 12 15 15 14 14 13 13 11
3 3 3 3 5 5 5 6 6 5 7 8 9 11 10 11 11 11 11 12 12 11 12 9 10 10 11 11 11 10 11 9 8 7 9 11 13 14 13 13 12 12 12 10
3 3 4 4 5 5 5 6 6 6 6 7 12 10 11 10 9 8 9 11 12 11 9 8 9 8 9 9 11 12 12 10 7 8 8 7 10 12 13 12 7 9 9 8
3 3 3 4 5 5 5 5 6 6 6 8 10 10 10 9 8 7 9 10 10 12 7 8 8 9 10 8 7 6 7 6 6 7 6 8 11 12 13 9 6 7 7 5
3 3 3 4 4 5 5 5 6 5 6 7 9 11 9 10 10 8 9 9 9 9 8 8 8 7 8 8 9 6 5 5 5 6 4 6 12 11 9 6 7 6 5 5
2 3 3 4 4 5 5 5 5 6 4 5 6 9 11 11 12 9 9 9 9 7 6 5 6 8 7 8 7 10 6 5 5 6 6 8 8 7 7 7 5 5 5 6
3 3 4 4 4 5 5 5 5 5 4 3 6 7 10 11 11 13 9 9 11 10 9 8 8 10 8 5 6 8 10 8 4 7 9 8 7 7 7 6 5 6 6 7
3 3 3 4 4 5 5 5 6 5 5 5 5 8 10 12 13 13 13 12 12 10 8 7 6 6 9 8 8 7 6 8 6 7 9 8 8 6 5 5 5 7 6 5
3 3 4 4 4 5 5 6 6 7 5 5 5 7 9 11 12 12 13 11 9 7 6 4 5 7 7 8 8 5 9 8 6 5 6 6 5 4 5 4 6 7 6 5
3 4 4 4 4 4 5 4 5 6 7 4 5 5 9 11 11 10 9 9 8 7 6 6 7 9 7 5 7 10 10 10 9 7 7 6 6 6 6 6 5 5 3 2
4 4 4 4 4 5 4 4 5 6 6 4 4 5 8 10 10 8 8 9 7 7 7 6 6 7 7 5 8 10 10 9 8 8 7 6 7 5 7 4 4 4 3 1
4 4 4 5 5 5 6 6 7 7 9 6 5 5 6 10 7 7 7 6 6 6 6 6 6 6 6 6 10 10 9 9 7 7 7 6 6 5 5 4 4 3 1 -0
4 5 5 5 5 4 5 6 7 9 7 4 3 4 6 8 8 6 6 6 4 6 4 7 6 7 6 9 9 9 8 7 7 7 6 6 5 4 4 3 3 1 0 -2
4 4 2 2 3 5 6 7 4 3 5 6 5 6 5 7 6 5 4 2 3 3 6 7 5 6 8 9 9 8 7 7 7 5 5 4 3 2 1 1 -0 -1 -2 -4
5 3 3 3 6 6 4 4 4 4 5 6 6 8 6 7 4 3 5 3 4 5 6 5 5 4 7 7 6 6 5 5 4 4 4 4 2 0 -1 -1 -2 -4 -5 -6
7 5 5 6 6 4 4 3 4 7 6 6 6 6 5 5 5 3 3 4 3 7 6 3 5 4 6 5 4 4 3 2 1 1 -0 -0 -1 -1 -2 -3 -5 -6 -7 -8
8 5 3 4 3 3 3 2 4 4 5 6 6 5 4 5 4 2 3 3 4 5 2 5 5 6 5 4 4 2 2 1 1 -0 -2 -4 -4 -3 -4 -5 -6 -7 -8 -8
3 4 2 3 2 5 5 6 6 5 6 6 6 3 4 3 3 2 2 4 4 3 2 6 4 5 4 3 3 2 1 -1 -2 -3 -4 -5 -6 -7 -6 -7 -7 -8 -9 -9
3 3 2 1 2 3 2 3 6 7 7 6 4 4 3 2 2 3 3 4 3 4 4 2 3 3 3 2 1 -1 -2 -4 -5 -5 -7 -7 -7 -8 -8 -8 -8 -8 -9 -9
3 3 2 3 4 5 5 6 6 6 3 5 4 3 2 2 3 3 3 5 4 3 1 3 3 2 1 0 -1 -3 -4 -5 -6 -6 -7 -7 -8 -8 -8 -8 -9 -9 -9 -9
3 2 2 3 3 3 3 3 3 3 3 2 3 2 5 3 3 5 3 4 5 4 2 1 2 1 -2 -3 -3 -4 -4 -6 -6 -6 -7 -7 -7 -8 -8 -9 -9 -8 -8 -8
Height
727 732 735 739 743 750 755 752 754 762 765 773 765 762 749 741 733 733 740 737 733 743 739 744 753 758 754 755 763 778 777 790 801 795 786 786 794 800 810 846 831 843 847 831
721 725 728 733 738 745 746 747 758 761 761 748 756 758 744 741 736 731 732 734 730 724 734 745 745 750 754 754 765 774 779 796 807 797 799 790 795 793 796 815 832 826 857 830
715 719 723 727 732 738 741 746 754 764 762 764 752 751 741 738 731 731 728 732 733 732 736 736 747 760 759 761 771 771 772 785 791 800 792 793 799 793 792 803 833 824 827 816
709 713 717 721 727 733 737 735 738 740 753 758 752 752 745 734 737 732 727 730 731 736 745 744 749 761 767 772 773 773 781 796 787 788 785 783 785 788 790 792 800 818 807 803
702 706 710 715 722 729 733 732 731 735 733 743 751 744 744 738 728 727 728 731 731 733 743 744 752 758 770 773 776 778 783 809 792 798 790 784 785 782 783 783 784 788 791 798
697 700 705 709 716 723 722 729 723 723 722 733 744 737 732 730 729 724 729 728 732 735 741 741 744 747 759 764 780 788 792 796 796 802 786 788 796 784 780 781 782 785 800 797
691 695 699 703 709 714 719 723 722 723 718 721 722 722 725 721 724 738 736 737 735 746 742 746 753 756 762 767 777 781 790 795 800 804 796 801 777 767 769 778 776 781 785 795
685 690 694 699 704 709 715 718 722 718 715 713 716 711 716 719 721 730 731 735 740 743 750 767 773 774 774 774 773 781 782 793 806 817 803 783 771 770 775 779 786 785 788 797
679 684 688 693 698 705 712 716 719 716 718 707 696 705 708 717 727 739 739 737 734 745 765 774 778 789 780 782 772 772 778 786 809 807 806 813 785 774 774 780 811 798 796 804
671 676 682 688 694 701 707 712 717 715 715 705 703 702 703 718 727 738 736 739 745 743 763 771 775 776 768 784 792 800 797 805 816 808 820 796 777 776 776 802 816 805 805 812
661 669 676 684 689 696 704 709 713 716 711 705 703 699 705 709 715 728 731 739 745 752 765 773 768 773 774 779 776 792 804 812 819 812 825 813 772 780 792 803 803 807 811 814
652 661 670 677 685 693 701 707 709 715 715 715 709 703 702 704 708 716 725 730 737 750 765 769 767 766 768 770 787 773 799 797 804 801 800 785 783 790 794 796 804 809 811 813
642 653 662 673 681 689 698 704 710 714 714 720 707 709 707 709 712 713 724 732 734 737 738 750 754 754 758 784 785 778 772 779 798 790 785 788 791 794 797 801 806 808 810 811
633 647 658 669 678 688 698 704 708 710 715 716 719 714 708 707 711 715 721 726 730 734 740 751 761 766 752 762 766 776 779 775 786 789 782 787 792 797 801 805 808 809 811 814
629 643 655 666 678 688 699 705 709 708 715 718 723 719 716 712 714 721 724 726 732 741 752 763 765 757 760 760 764 779 764 772 786 794 784 789 796 800 801 808 810 810 812 818
626 640 652 665 676 688 698 706 710 709 706 719 725 729 724 719 719 722 726 729 734 740 749 755 756 754 762 778 773 757 759 761 765 777 780 786 795 799 803 808 811 813 817 822
626 640 653 664 676 685 693 695 695 707 714 718 730 735 728 725 724 728 732 733 739 743 751 756 760 760 760 774 770 761 761 767 773 777 782 792 794 801 804 810 814 817 822 825
630 643 657 670 682 692 692 690 695 704 706 717 730 735 732 725 733 738 735 743 745 750 754 756 763 762 764 774 760 760 766 772 778 781 784 790 796 801 807 811 815 819 824 827
635 650 665 677 687 691 694 700 705 707 710 721 728 732 735 728 733 738 744 746 763 754 764 758 761 766 772 761 760 765 770 775 782 786 789 794 800 805 809 813 816 820 825 829
642 656 668 683 687 693 695 703 709 711 709 711 718 718 731 730 737 749 755 757 766 773 762 754 766 770 760 760 761 766 771 776 781 788 794 800 805 809 813 817 821 824 827 832
645 660 672 679 684 692 700 706 711 711 711 711 716 715 722 731 743 752 748 761 759 766 761 764 767 775 767 765 769 772 775 779 784 787 791 797 804 810 816 820 824 827 831 834
644 654 672 682 688 694 700 709 703 697 706 710 717 723 727 733 735 749 752 756 761 752 753 770 769 770 765 769 776 779 781 785 791 794 799 803 808 812 816 821 826 830 833 836
650 660 676 683 692 702 704 714 704 705 701 707 713 724 728 734 739 751 754 759 763 752 774 761 763 762 766 772 778 784 787 791 796 801 805 808 812 816 819 824 828 831 834 836
661 671 691 692 698 687 686 684 688 692 696 705 713 725 729 738 746 750 761 756 754 770 775 754 763 762 769 775 780 786 792 797 801 805 809 813 816 820 824 826 829 831 834 836
673 679 695 702 696 693 690 686 685 693 698 705 717 724 730 744 748 748 756 759 767 757 759 762 761 763 770 777 783 790 795 800 804 807 811 816 819 822 826 828 829 832 834 835
684 691 697 695 691 690 688 691 696 698 706 708 716 728 741 744 744 747 751 748 754 757 758 755 759 767 773 779 785 792 797 801 805 809 813 817 820 823 826 829 830 832 833 835
694 702 702 699 700 702 704 704 706 704 711 724 723 736 730 736 742 737 743 745 743 747 754 758 761 767 775 781 787 793 798 803 807 811 815 817 820 823 826 828 830 831 832 834
Wind_Speed
24 26 27 24 21 19 18 9 7 12 29 6 2 12 9 9 10 16 7 7 6 11 10 10 11 11 6 7 8 7 2 4 4 8 8 8 7 5 7 4 5 2 3 3
25 26 28 27 24 23 11 3 3 6 10 6 5 7 15 14 15 8 6 4 4 1 4 4 9 7 4 12 6 7 6 2 2 3 4 1 3 4 4 5 3 4 3 3
26 27 27 26 25 24 17 4 3 1 1 3 6 11 16 19 9 15 8 7 7 2 2 4 4 4 3 5 5 8 6 2 5 7 4 4 3 7 7 7 4 4 5 8
26 27 32 31 27 25 15 3 3 6 6 8 6 10 4 15 13 10 7 5 6 6 5 5 6 5 5 6 4 4 4 3 1 5 7 7 6 7 11 10 8 7 8 10
27 28 29 35 30 27 18 4 4 3 5 10 12 12 9 11 12 8 12 6 12 8 7 7 7 9 4 5 1 3 2 3 3 3 6 9 11 8 6 7 10 8 7 3
26 28 29 33 31 28 6 6 5 2 9 13 14 10 15 18 14 7 8 7 4 5 4 8 6 8 8 7 7 4 6 4 4 4 5 7 7 7 8 5 5 4 4 5
25 26 27 29 31 31 13 6 4 3 5 13 18 20 18 14 11 10 4 5 5 4 7 10 11 10 6 7 7 6 5 5 2 2 3 7 6 6 4 1 5 6 5 8
27 27 28 33 31 28 22 10 4 3 4 12 14 15 19 11 9 5 3 2 5 7 8 5 5 3 3 4 7 7 5 4 1 3 3 5 2 4 4 3 2 5 6 8
32 32 32 31 32 29 29 20 20 4 1 9 9 15 17 8 8 5 3 3 1 8 4 4 5 4 4 5 6 10 10 4 4 1 3 4 3 7 11 6 1 7 10 8
36 36 35 32 34 32 27 14 28 6 1 3 5 11 14 7 5 5 5 7 6 5 3 2 3 4 8 5 7 5 3 0 5 2 2 5 5 7 5 4 5 6 9 7
39 37 36 33 34 32 29 19 24 10 1 5 8 3 6 8 8 8 7 6 2 4 5 4 4 3 6 4 7 7 6 6 3 1 1 5 11 6 4 5 5 7 7 6
43 40 37 37 35 31 32 5 16 22 2 2 20 6 7 9 6 7 5 5 5 5 4 1 1 1 3 6 3 1 0 6 5 6 5 2 8 10 6 5 7 5 6 5
46 43 43 36 34 32 34 12 13 7 3 2 3 4 6 14 9 25 6 2 5 3 4 3 2 2 3 3 3 4 3 4 4 3 1 9 10 9 9 8 7 6 6 6
48 45 42 37 35 32 35 20 22 4 3 2 3 3 6 7 15 18 19 7 2 6 4 3 2 2 2 1 5 4 5 5 6 2 2 8 8 8 11 8 6 4 10 10
46 45 42 39 35 35 31 24 21 11 3 2 2 5 8 2 22 15 15 13 6 3 3 3 1 1 4 1 3 1 4 6 4 4 7 6 5 8 11 7 5 3 8 9
46 46 44 41 39 41 26 3 22 15 14 2 2 6 4 5 17 17 8 4 3 3 4 2 2 2 3 3 2 3 8 8 6 4 7 12 12 10 11 6 7 12 13 14
48 46 44 43 48 38 5 3 20 32 13 3 3 2 4 7 5 3 4 4 3 4 2 2 3 2 3 2 2 6 11 15 15 13 12 9 12 6 10 16 13 17 17 17
48 48 46 49 42 24 5 13 39 28 8 3 3 1 2 3 3 3 2 3 3 4 2 3 3 2 2 2 4 8 14 13 12 8 8 9 13 14 12 16 13 8 8 13
53 52 49 38 14 3 4 28 24 13 4 4 3 4 5 1 2 3 4 3 3 2 2 2 3 1 1 6 7 12 9 7 9 12 13 11 10 9 9 9 8 10 9 13
60 45 9 3 5 25 27 5 3 3 1 2 3 3 4 4 3 1 3 1 3 2 3 2 3 1 4 7 8 9 8 12 11 11 9 9 9 8 9 10 12 12 12 15
22 3 3 18 34 7 2 3 3 2 2 2 2 9 9 2 4 3 2 3 2 3 3 4 2 1 3 8 10 10 11 12 11 12 8 14 11 10 10 9 14 16 14 11
10 21 29 15 3 2 4 2 1 3 4 3 9 8 5 3 4 3 0 2 2 3 2 3 2 2 9 12 12 10 12 18 15 20 17 19 19 19 16 14 15 14 12 10
35 7 4 3 1 2 6 6 1 3 3 7 9 6 4 3 3 3 3 3 2 3 2 3 2 7 10 11 11 12 17 19 19 18 19 21 20 19 19 15 15 14 13 9
4 4 5 2 2 2 1 2 5 3 10 12 8 2 3 2 3 3 4 1 3 2 2 5 4 10 11 10 10 11 9 12 15 17 17 16 15 16 16 16 14 14 12 9
4 4 4 2 2 2 3 2 8 11 10 7 5 3 3 2 3 2 3 2 2 4 4 3 6 11 12 10 10 11 10 10 12 19 17 19 19 18 16 13 12 12 11 9
4 6 3 1 1 6 8 11 10 4 4 3 3 3 4 1 4 3 4 6 4 3 2 5 10 11 9 10 12 13 16 16 18 21 20 19 18 18 15 11 11 10 10 8
4 3 3 3 4 5 3 3 2 2 3 2 3 4 3 3 2 2 2 2 3 7 5 4 9 10 11 12 16 18 19 18 20 20 18 17 16 16 15 12 11 8 9 8
Wind_Direction
245 237 234 231 227 222 217 160 203 167 150 170 192 218 212 221 243 249 221 268 229 197 193 188 175 191 171 112 128 131 104 136 191 211 178 196 177 193 167 139 254 237 170 218
240 233 229 227 225 216 192 142 113 193 171 217 178 247 225 235 222 249 216 239 255 18 175 154 168 162 76 121 120 151 167 210 117 335 14 10 201 188 170 124 108 180 132 255
232 232 223 217 224 220 200 129 145 109 21 320 182 217 215 220 219 255 214 189 228 253 282 130 140 104 63 97 95 124 100 161 169 196 149 177 202 207 226 160 144 183 219 252
228 228 228 223 228 218 206 181 198 171 167 207 196 185 239 203 222 232 209 212 222 192 195 160 153 97 88 79 137 78 103 155 329 300 302 292 247 218 216 237 181 179 218 241
233 222 221 212 230 216 206 198 177 171 178 186 205 182 187 215 224 209 222 186 218 196 169 166 180 131 144 165 132 100 55 189 115 273 274 277 263 236 246 246 240 231 218 116
229 223 221 216 222 204 157 229 267 155 157 176 180 204 193 201 228 265 315 182 137 132 77 70 126 119 126 136 133 134 144 142 150 243 249 273 276 223 243 249 252 194 163 144
230 223 222 223 221 210 196 171 264 174 193 175 196 195 197 208 187 160 308 57 101 119 102 71 60 82 98 109 141 137 142 149 127 233 330 236 221 189 218 296 251 129 135 103
229 226 226 225 220 215 201 190 232 146 259 189 180 199 186 210 158 170 92 161 116 93 35 52 45 20 114 244 177 167 189 144 173 160 218 277 28 120 125 136 79 35 107 94
230 228 231 224 217 218 207 215 215 235 139 214 172 191 188 186 159 146 224 315 342 154 137 152 167 184 158 197 166 177 193 144 146 159 204 234 264 100 99 84 348 2 89 77
222 223 226 222 216 217 207 215 216 269 223 242 287 194 169 132 126 143 149 173 177 137 106 130 139 193 171 173 152 176 148 21 181 190 243 289 173 112 98 113 222 76 72 82
218 217 219 218 214 214 201 208 211 234 279 303 314 282 142 131 154 150 189 89 315 116 159 172 219 151 196 114 168 169 156 159 175 145 60 271 142 110 153 168 87 108 89 83
216 213 212 212 209 209 197 201 205 214 111 290 289 88 264 149 173 134 153 115 157 162 142 165 141 25 112 136 159 106 157 172 175 157 210 67 65 103 97 128 123 110 108 114
206 201 207 204 207 205 191 190 169 185 76 292 17 12 46 156 194 158 134 86 167 127 154 157 169 101 116 122 189 109 189 135 121 93 181 109 108 93 80 94 116 124 137 89
199 197 199 196 200 197 187 189 186 131 139 75 1 329 329 36 153 155 153 165 115 127 84 91 120 117 59 197 160 136 190 130 141 119 53 111 122 113 110 89 89 106 90 89
188 187 187 191 193 187 178 191 179 170 147 118 80 14 359 94 170 138 151 129 112 97 65 71 183 97 68 350 80 112 170 165 143 207 186 137 122 125 114 121 133 101 76 83
180 180 182 183 181 168 157 138 195 164 105 84 90 325 315 39 112 114 110 108 90 93 117 133 62 46 105 96 131 41 83 78 132 123 108 111 125 115 122 138 98 81 83 73
169 171 172 173 165 160 152 181 152 147 175 102 94 52 262 161 105 59 61 59 75 98 88 76 112 31 75 90 117 106 96 94 99 106 110 112 130 149 121 104 96 99 95 88
160 160 158 157 157 161 256 113 149 153 91 101 107 96 46 31 75 73 57 59 39 11 118 40 98 9 66 86 112 97 103 101 87 83 98 106 105 99 108 123 132 107 94 99
145 146 146 136 151 98 129 153 164 168 113 134 132 136 149 83 95 75 29 73 48 321 77 177 104 110 200 158 121 114 118 115 121 105 106 111 112 110 106 98 86 106 98 94
134 128 79 93 172 137 119 98 34 21 313 136 125 112 125 119 99 69 94 59 160 104 244 87 83 8 78 60 103 127 122 131 124 121 116 102 99 104 98 95 91 94 92 91
123 106 98 125 133 102 128 152 138 183 101 78 102 140 127 76 100 139 153 177 170 123 227 127 174 147 159 93 83 82 83 83 79 85 94 129 127 120 112 103 95 91 90 94
146 117 115 116 116 86 113 177 1 144 145 107 137 137 133 109 99 100 316 129 51 125 147 87 145 202 128 105 98 87 84 90 84 86 88 87 91 105 110 102 101 103 106 112
118 76 78 122 229 83 135 175 195 122 119 139 142 128 128 66 62 59 82 95 187 100 64 179 166 140 118 118 111 98 99 102 104 99 91 88 81 100 104 103 119 119 114 115
67 69 56 75 21 84 3 175 138 161 125 136 135 102 113 119 74 150 81 244 108 99 147 183 163 140 128 121 121 119 117 114 112 111 106 100 102 100 108 116 127 124 119 109
60 44 65 51 282 266 257 263 103 119 127 123 99 63 85 86 104 103 105 92 185 199 205 170 143 132 128 130 120 115 113 116 112 118 117 123 126 122 116 126 128 128 128 119
56 39 58 305 87 67 84 105 111 107 114 81 73 112 85 105 133 99 182 153 186 205 128 124 124 128 128 123 124 123 119 118 122 131 137 138 137 138 135 137 135 140 145 135
51 29 356 24 62 66 49 40 6 325 75 126 109 75 173 121 95 120 49 112 112 114 103 99 125 128 120 121 124 126 126 126 134 140 145 142 147 147 145 146 155 148 162 165